Погода в Тагбиларане

Филиппины     9°38′47″N   123°52′18″E
темп.,
°C
ветер,
м/с
пор.,
м/с
влажн.,
%
обл.,
%
осадки,
мм/ч
давл.,
гПа
погр.,
м
9 марта, вт
вт923:00+27св697512 1.9 1012728
02:00+27св68776 2.3 1011758
05:00+26св477815 0.8 1011703
08:00+27св577931 1.1 1013768
11:00+28ссв5775100 0.2 1012525
14:00+28ссв677873 2.2 1010674
17:00+28св697738 3.9 1010725
20:00+27всв6107769 4.9 1012716
10 марта, ср
ср1023:00+27св71176100 0.0 1013780
02:00+27св7107779 0.0 1011941
05:00+26ссв8108028 0.1 1012906
08:00+27ссв797836 0.1 1013971
11:00+27ссв897734 0.7 1013984
14:00+28ссв687320 1.1 1010575
17:00+28св69753 1.1 1010722
20:00+27св797729 2.5 1012772
11 марта, чт
чт1123:00+27ссв797768 1.3 1013873
02:00+27ссв8107963 2.1 1011973
05:00+27св7107985 0.1 1011980
08:00+27св7107890 0.3 10131050
11:00+28ссв7876100 0.4 10121048
14:00+27св7979100 2.5 1010874
17:00+26ссв6987100 3.6 1010740
20:00+26св71087100 5.4 1012750
12 марта, пт
пт1223:00+26св6984100 1.0 1012820
02:00+26ссв5785100 1.6 1010639
05:00+26с7984100 2.8 1010735
08:00+25св61087100 5.1 1011646
11:00+26ссв81085100 1.1 1011751
14:00+27ссв71082100 1.6 1009893
17:00+27св71081100 0.2 1009971
20:00+27св6882100 0.4 1011785
13 марта, сб
сб1323:00+26св6982100 2.1 1011631
02:00+26ссв6882100 3.3 1009738
05:00+26св5782100 0.1 1009644
08:00+26св4682100 1.5 1011371
11:00+27с237890 3.1 1010233
14:00+28св347795 7.7 1008305
17:00+27ссв4580100 1.4 1008382
20:00+27св578293 3.5 1010365